Lid_Strength_Index
0 0 0 0 0 0 0 1 2 5 4 2 2 -1 -1 -1 -1 -1 -1 0 1 1 2 2 2 1 0 -0 -0 -0 1 2 4 4 4 3 -1 -0
0 0 0 0 0 0 0 0 1 2 4 1 1 -0 -1 -1 -1 -2 -1 1 1 2 2 2 2 2 1 2 2 1 2 3 4 5 5 3 0 0
-0 0 0 -0 0 0 -0 0 1 1 3 2 0 -0 -0 -0 -1 -1 -1 -2 -1 1 2 2 3 2 3 2 2 2 3 4 5 6 6 5 1 1
0 0 1 0 0 -0 0 1 1 1 2 3 1 1 0 -1 -1 -1 -1 -1 -1 0 2 2 3 3 3 4 3 3 4 5 6 7 7 6 1 1
0 1 1 0 1 1 1 1 1 1 1 2 2 1 0 -0 0 -0 -0 -1 -1 0 2 2 2 3 3 4 4 4 5 7 7 8 9 8 4 2
0 0 0 0 0 0 1 1 1 1 1 2 2 2 1 0 1 1 2 0 0 -0 0 2 2 2 3 3 4 3 6 8 8 9 10 9 8 4
0 0 -0 0 2 1 0 0 1 1 1 2 2 2 2 2 2 1 1 1 0 0 0 -0 -0 -1 -1 1 0 1 5 7 8 9 10 10 9 8
1 0 -0 1 1 3 4 3 1 1 2 2 2 3 2 1 1 1 1 2 3 -1 0 1 -0 0 -1 -1 2 3 4 6 7 8 10 10 10 9
0 0 0 0 1 -0 2 4 4 5 3 0 2 2 2 1 1 1 1 2 2 1 1 2 0 1 -1 -1 3 4 5 6 7 8 9 10 10 11
1 1 1 0 0 1 0 0 0 -0 -0 1 1 0 -0 -0 -0 0 1 1 1 0 -0 3 0 1 -0 -1 4 5 6 7 7 8 9 10 11 12
1 1 1 1 7 7 2 1 1 1 2 5 5 5 5 5 4 1 2 2 3 2 0 1 1 1 0 0 -0 5 7 8 9 8 9 11 11 11
2 2 5 5 8 7 4 3 2 2 1 1 1 2 3 2 5 2 1 2 3 3 0 2 1 1 3 0 -0 0 1 8 10 10 9 10 12 4
4 4 3 7 8 9 9 5 4 4 4 2 1 1 1 0 0 0 0 0 2 2 0 0 1 1 2 2 1 -0 1 2 3 6 11 12 13 8
5 4 4 9 10 10 7 6 8 8 3 3 2 2 1 1 0 -0 -1 -1 -1 0 -1 -1 1 2 2 3 3 0 0 1 2 2 3 9 12 12
7 8 9 10 9 7 7 7 7 2 2 2 2 1 1 0 -0 -0 -1 -1 -1 -1 -1 -1 0 0 1 2 3 2 2 1 1 2 2 4 5 8
8 8 7 7 7 6 5 3 2 2 1 1 1 1 0 0 1 0 1 1 1 1 -1 -1 -1 -0 1 1 1 2 1 2 0 1 2 2 3 4
8 4 4 3 3 3 2 2 1 1 3 4 4 4 4 3 3 1 1 1 2 2 2 0 -1 -1 -0 1 2 1 2 1 1 1 2 2 2 3
6 5 4 4 3 2 2 1 1 2 3 3 3 4 4 4 4 4 2 1 2 2 2 1 1 1 1 1 1 2 1 2 1 0 1 2 2 0
7 6 5 4 4 3 2 3 3 3 4 4 4 4 4 4 4 3 3 4 3 2 2 1 2 2 4 5 1 5 2 1 1 1 1 1 2 1
9 9 8 6 5 4 4 4 5 4 4 5 5 5 4 4 4 4 4 4 3 4 4 2 2 2 3 4 3 1 9 1 1 2 2 1 1 5
10 10 9 9 8 8 6 5 5 5 6 6 6 6 6 6 6 5 4 6 5 4 4 3 1 3 1 1 3 3 1 9 3 1 1 2 2 2
10 10 10 9 9 8 8 7 6 7 7 7 7 7 7 7 7 6 6 6 5 4 4 3 1 1 1 3 3 3 2 1 4 8 7 4 2 4
12 11 10 9 9 9 8 7 7 8 8 8 8 8 8 8 8 8 8 8 7 6 5 4 3 1 2 2 3 3 2 2 2 2 1 5 7 7